Tracking 31027 objects as of 19-Jul-2025
HD Live streaming from Space Station
objects crossing your sky now

METEOR 1-17 DEB

Track METEOR 1-17 DEB now!
10-day predictions


NORAD ID: 57543
Int'l Code: 1974-025J
Perigee: 827.4 km
Apogee: 845.4 km
Inclination: 81.2 °
Period: 101.5 minutes
Semi major axis: 7207 km
RCS: Unknown
Launch date: April 24, 1974
Source: Commonwealth of Independent States (former USSR) (CIS)
Launch site: PLESETSK MISSILE AND SPACE COMPLEX (PKMTR)

Note: This is SATELLITE DEBRIS
Your satellite tracking list
Your tracking list is empty




NASA's NSSDC Master Catalog

Two Line Element Set (TLE):
1 57543U 74025J   25192.45791371  .00001683  00000-0  80276-3 0  9992
2 57543  81.2014 264.3407 0012511 191.0145 169.0759 14.18844053109206
Source of the keplerian elements: AFSPC